#timestamp,LO_Frequency,Hit,StdDev 
1591084815.3,286046996.8,P
1591084835.2,286046996.8,N
1591084855.0,286046998.9,N
1591084855.9,286046998.9,N
1591084875.8,286047000.9,N
1591084895.6,286047000.5,N
1591084915.4,286047000.2,N
1591084935.3,286047001.9,N
1591084955.1,286047004.1,N
1591084975.9,286047001.8,N
1591084995.7,286047005.3,N
1591085015.5,286047003.5,N
1591085035.4,286047001.3,N
1591085055.2,286047003.8,N
1591085075.0,286047007.5,Y
1591085075.9,286047007.5,P
1591085095.8,286047005.4,N
1591085115.6,286047005.8,N
1591085135.5,286047004.0,N
1591085155.3,286047004.0,N
1591085175.1,286047001.5,N
1591085195.9,286047002.4,N
1591085215.7,286047002.4,N
1591085235.5,286047001.0,N
1591085255.4,286047002.8,N
1591085275.2,286047000.5,N
1591085295.1,286047002.1,N
1591085296.0,286047002.1,N
1591085315.8,286047001.7,N
1591085335.6,286047004.3,N
1591085355.5,286047007.4,Y
1591085375.3,286047003.2,P
1591085395.1,286047004.8,P
1591085415.9,286047001.6,N
1591085435.7,286047002.5,N
1591085455.6,286047001.9,N
1591085475.4,286047003.4,Y
1591085495.2,286047000.5,P
1591085515.1,286046998.3,N
1591085516.0,286046998.3,N
1591085535.8,286047002.7,N
1591085555.6,286047000.9,N
1591085575.5,286047000.0,N
1591085595.3,286047002.8,N
1591085615.2,286047000.0,N
1591085635.9,286047000.3,N
1591085655.7,286047000.8,N
1591085675.6,286047000.0,N
1591085695.4,286047000.1,N
1591085715.2,286047002.3,N
1591085735.1,286046998.1,N
1591085736.0,286046998.1,N
1591085755.8,286046998.9,N
1591085775.7,286046997.6,N
1591085795.5,286046995.2,N
1591085815.3,286046996.4,N
1591085835.2,286046994.9,N
1591085855.0,286046998.0,N
1591085855.9,286046998.0,N
1591085875.7,286046997.4,N
1591085895.6,286046997.7,N
1591085915.4,286046998.9,N
1591085935.3,286046998.9,N
1591085955.1,286046998.9,N
1591085956.0,286046998.9,N
1591085975.8,286047001.0,N
1591085995.7,286046998.5,N
1591086015.5,286047002.8,N
1591086035.3,286047002.3,N
1591086055.2,286047001.1,N
1591086075.0,286046999.9,N
1591086075.9,286046999.9,N
1591086095.8,286047001.1,N
1591086115.6,286047000.6,N
1591086135.4,286046999.2,N
1591086155.3,286047001.2,N
1591086175.1,286047002.1,N
1591086195.8,286047002.1,N
1591086215.7,286046998.5,N
1591086235.5,286046998.6,N
1591086255.4,286047000.2,N
1591086275.2,286046998.3,N
1591086295.0,286046998.9,N
1591086295.9,286046998.9,N
1591086315.8,286046998.4,N
1591086335.6,286046999.9,N
1591086355.4,286046999.1,N
1591086375.3,286046995.6,Y
1591086395.1,286046997.3,P
1591086415.9,286046998.3,N
1591086435.7,286047000.9,N
1591086455.5,286047001.5,N
1591086475.4,286047003.7,N
1591086495.2,286047003.6,N
1591086515.0,286047005.8,N
1591086515.9,286047005.8,N
1591086535.8,286047005.0,N
1591086555.6,286047005.4,N
1591086575.5,286047005.4,N
1591086595.3,286047002.0,N
1591086615.1,286047002.8,N
1591086635.9,286046999.7,N
1591086655.7,286046999.7,N
1591086675.5,286047003.1,N
1591086695.4,286047006.7,N
1591086715.2,286047006.9,N
1591086735.1,286047007.0,N
1591086736.0,286047007.0,N
1591086755.8,286047007.6,N
1591086775.6,286047007.4,N
1591086795.5,286047006.1,N
1591086815.3,286047007.9,N
1591086835.1,286047010.8,Y
1591086855.9,286047003.4,P
1591086875.7,286047004.0,P
1591086895.6,286047002.2,P
1591086915.4,286047000.0,N
1591086935.2,286047003.7,N
1591086955.1,286047003.1,N
1591086956.0,286047003.1,N
1591086975.8,286047005.6,Y
1591086995.6,286046998.1,P
1591087015.5,286047001.3,N
1591087035.3,286047002.1,N
1591087055.2,286047003.4,N
1591087075.9,286047002.9,N
1591087095.7,286047004.0,N
1591087115.6,286047003.7,N
1591087135.4,286047003.1,N
1591087155.2,286047007.1,Y
1591087175.1,286047005.2,P
1591087176.0,286047005.2,P
1591087195.8,286047007.0,P
1591087215.7,286047006.3,Y
1591087235.5,286047001.3,P
1591087255.3,286047002.3,N
1591087275.2,286047000.7,N
1591087295.0,286046997.3,N
1591087295.9,286046997.3,N
1591087315.8,286046995.2,N
1591087335.6,286046993.3,N
1591087355.4,286046995.2,N
1591087375.3,286046996.0,N
1591087395.1,286046995.5,N
1591087415.8,286046996.1,N
1591087435.7,286046993.9,N
1591087455.5,286046994.6,N
1591087475.3,286046990.5,N
1591087495.2,286046993.1,N
1591087515.0,286046990.3,N
1591087515.9,286046990.3,N
1591087535.8,286046990.5,N
1591087555.6,286046991.4,N
1591087575.4,286046991.4,N
1591087595.3,286046988.6,N
1591087615.1,286046989.4,N
1591087635.9,286046987.2,N
1591087655.7,286046988.4,N
1591087675.5,286046987.9,N
1591087695.4,286046987.6,N
1591087715.2,286046988.6,N
1591087735.0,286046988.5,N
1591087735.9,286046988.5,N
1591087755.8,286046993.0,N
1591087775.6,286046994.5,N
1591087795.5,286046996.0,N
1591087815.3,286046995.5,N
1591087835.1,286046995.6,N
1591087855.9,286046996.1,N
1591087875.7,286046993.0,N
1591087895.5,286046991.6,N
1591087915.4,286046987.0,Y
1591087935.2,286046995.1,P
1591087955.1,286046995.7,N
1591087956.0,286046995.7,N
1591087975.8,286046993.8,Y
1591087995.6,286046998.2,P
1591088015.5,286047000.6,N
1591088035.3,286047001.1,N
1591088055.1,286047001.1,N
1591088075.9,286047001.2,N
1591088095.7,286046999.4,N
1591088115.6,286046997.0,N
1591088135.4,286046995.0,N
1591088155.2,286046994.9,N
1591088175.1,286046995.5,N
1591088176.0,286046995.5,N
1591088195.8,286046998.0,N
1591088215.6,286046994.9,N
1591088235.5,286046996.1,N
1591088255.3,286046995.9,N
1591088275.2,286046994.3,N
1591088295.0,286046991.9,Y
1591088295.9,286046991.9,P
1591088315.7,286046995.6,N
1591088335.6,286046996.3,N
1591088355.4,286046993.5,Y
1591088375.3,286047001.1,P
1591088395.1,286047000.9,N
1591088396.0,286047000.9,N
